Date,TemperatureHighF,TemperatureAvgF,TemperatureLowF,DewpointHighF,DewpointAvgF,DewpointLowF,HumidityHigh,HumidityAvg,HumidityLow,PressureMaxIn,PressureMinIn,WindSpeedMaxMPH,WindSpeedAvgMPH,GustSpeedMaxMPH,PrecipitationSumIn
2014-1-1,62,57,52,50,47,44,77,71,62,30.12,30.03,9,2,13,0.00
2014-1-2,63,59,51,55,50,46,83,73,62,30.15,30.09,4,1,6,0.00
2014-1-3,65,63,61,55,54,52,78,72,66,30.20,30.12,5,1,6,0.00
2014-1-4,64,62,59,58,56,54,88,83,76,30.20,30.06,6,3,10,0.16
2014-1-5,63,59,54,57,50,44,81,71,60,29.91,29.79,11,3,15,0.13
2014-1-6,62,56,50,49,46,42,77,68,58,30.20,29.94,7,2,10,0.00
2014-1-7,66,58,51,54,49,45,85,72,57,30.32,30.20,5,1,6,0.00
2014-1-8,64,58,51,57,51,48,92,79,63,30.35,30.29,5,1,8,0.00
2014-1-9,65,60,55,56,51,49,85,74,65,30.29,30.20,5,1,6,0.00
2014-1-10,62,59,55,52,50,46,76,72,69,30.17,30.15,7,1,10,0.00
2014-1-11,62,57,52,51,48,45,79,72,63,30.23,30.17,3,0,4,0.00
2014-1-12,62,57,51,52,49,46,87,76,66,30.20,30.12,4,1,6,0.00
2014-1-13,67,61,54,52,49,45,79,66,55,30.12,30.03,3,0,4,0.00
2014-1-14,62,58,56,55,52,50,84,80,73,29.91,29.79,7,2,8,0.24
2014-1-15,64,57,53,54,49,45,88,74,57,29.97,29.79,5,1,9,0.05
2014-1-16,63,58,50,54,50,46,88,74,66,30.09,30.00,4,0,4,0.02
2014-1-20,64,59,57,53,51,49,81,75,65,29.61,29.47,9,3,15,0.20
2014-1-21,59,57,54,52,50,46,84,77,70,29.79,29.53,11,2,14,0.13
2014-1-22,61,57,51,51,46,42,84,70,56,30.03,29.85,9,2,15,0.79
2014-1-23,59,56,54,52,49,46,82,78,73,30.06,29.97,4,1,8,0.27
2014-1-24,62,55,50,53,48,44,84,76,64,29.79,29.44,10,1,13,0.26
2014-1-25,55,51,46,42,37,32,83,60,48,29.79,29.50,8,3,16,0.16
2014-1-26,56,49,43,37,34,30,68,56,48,29.76,29.67,7,2,11,0.00
2014-1-27,56,52,46,48,40,28,86,66,49,29.70,29.41,13,2,16,0.76
2014-1-28,51,51,51,46,46,46,82,82,82,29.35,29.35,0,0,0,0.53
2014-1-29,60,55,44,50,45,36,79,70,55,29.82,29.61,7,2,10,0.06
2014-1-30,64,62,59,52,49,46,70,64,53,29.85,29.79,15,8,22,0.02
2014-1-31,67,65,62,55,51,48,71,60,54,29.85,29.76,14,7,24,0.20
2014-2-1,65,62,60,58,56,54,83,80,72,29.85,29.76,6,2,11,0.09
2014-2-2,60,60,60,53,53,53,77,77,77,29.64,29.64,0,0,0,0.00
2014-2-3,59,57,55,53,50,48,83,79,73,29.91,29.82,3,0,5,0.07
2014-2-4,59,57,55,52,49,47,82,75,69,30.06,29.97,5,1,6,0.02
2014-2-5,60,58,53,51,49,45,84,73,60,30.03,29.91,5,1,8,0.02
2014-2-6,60,58,54,48,45,41,74,63,50,30.03,29.79,14,4,20,0.27
2014-2-7,63,59,53,52,50,46,81,71,66,30.12,29.97,4,2,12,0.00
2014-3-8,58,57,57,40,39,38,52,51,50,30.23,30.20,8,4,11,0.00
2014-3-9,66,61,56,41,38,33,54,42,31,30.23,30.15,10,4,19,0.00
2014-3-10,58,56,53,42,39,36,60,54,48,30.06,29.97,7,4,13,0.00
2014-3-11,58,55,50,41,38,34,62,53,43,30.23,30.03,7,3,13,0.00
2014-3-12,54,54,54,34,34,34,47,46,46,30.29,30.29,0,0,2,0.00
2014-3-13,66,61,50,48,42,35,62,51,36,30.32,30.26,6,1,6,0.00
2014-3-14,67,62,54,51,46,40,76,58,47,30.26,30.17,4,1,4,0.00
2014-3-15,53,53,53,47,47,47,80,80,80,30.15,30.15,0,0,0,0.00
2014-3-16,67,61,52,54,52,46,84,72,60,30.06,29.94,6,1,8,0.00
2014-3-17,65,62,58,55,54,52,83,75,69,30.20,30.09,3,0,4,0.00
2014-3-18,66,62,56,57,54,51,86,76,68,30.23,30.17,2,0,4,0.00
2014-3-20,57,56,56,50,50,50,81,80,80,30.20,30.17,0,0,1,0.00
2014-3-21,69,64,57,58,55,51,82,73,66,30.20,30.12,2,0,4,0.00
2014-3-23,60,60,60,53,53,53,78,77,76,29.88,29.88,3,2,6,0.00
2014-3-25,60,53,45,48,45,40,84,74,57,29.85,29.70,8,1,9,0.22
2014-3-26,62,57,46,50,47,42,87,71,60,29.79,29.70,12,3,16,0.27
2014-3-27,60,56,51,51,48,44,84,75,61,29.61,29.55,6,2,8,0.65
2014-3-28,61,55,51,48,46,45,80,72,58,29.82,29.73,4,2,6,0.00
2014-6-24,89,84,78,66,58,48,52,41,25,30.00,29.88,3,0,4,0.00
2014-6-25,82,78,75,72,70,68,81,77,66,29.91,29.79,6,2,10,0.00
2014-6-26,85,79,74,72,67,58,84,68,45,29.94,29.82,8,2,18,0.00
2014-6-27,85,80,74,70,67,62,79,64,53,30.06,29.91,6,1,9,0.00
2014-6-28,86,81,73,72,70,66,84,69,62,30.09,30.03,4,0,5,0.00
2014-6-29,71,71,71,65,65,65,82,82,82,29.97,29.97,2,2,3,0.00
2014-6-30,82,79,72,68,65,63,76,63,57,29.97,29.82,4,1,10,0.00
2014-7-1,72,72,72,62,62,62,72,72,72,30.00,30.00,0,0,0,0.00
2014-7-2,84,79,70,68,65,62,81,62,53,30.15,30.06,6,1,7,0.00
2014-7-3,88,81,68,70,67,62,81,62,53,30.20,30.15,4,1,7,0.00
2014-7-4,90,84,75,73,68,63,71,59,48,30.09,29.97,3,0,4,0.00
2014-7-5,86,80,73,74,70,66,82,73,65,29.94,29.91,5,1,8,0.00
2014-7-6,86,81,73,74,70,67,83,70,61,30.00,29.94,7,1,9,0.00
2014-7-7,87,84,72,73,70,65,80,65,56,30.06,29.94,4,0,6,0.00
2014-7-8,87,81,75,75,67,57,77,62,49,29.91,29.85,8,2,13,0.00
2014-7-9,83,80,74,64,62,58,64,55,48,29.88,29.82,2,1,6,0.00
2014-7-10,80,75,69,62,60,58,74,58,51,29.76,29.73,5,2,9,0.80
2014-7-11,81,78,63,65,62,56,79,60,51,29.79,29.73,4,0,6,0.53
2014-7-12,84,79,68,68,67,63,84,66,55,29.94,29.85,6,1,9,0.00
2014-7-13,83,76,68,67,63,60,77,65,54,29.97,29.91,7,1,9,0.00
2014-7-14,80,74,66,69,66,61,88,75,66,29.94,29.88,8,1,13,0.04
2014-7-15,82,76,65,68,64,61,88,68,57,30.00,29.91,9,2,11,0.00
2014-7-16,85,80,68,69,66,61,80,61,50,30.00,29.94,6,2,12,0.00
2014-7-17,86,81,71,73,69,62,80,67,55,30.00,29.97,8,1,13,0.00
2014-7-18,87,81,72,73,68,64,82,66,52,30.00,29.94,6,1,12,0.00
2014-7-19,88,82,71,73,66,60,77,58,43,30.00,29.97,5,1,8,0.00
2014-7-20,82,80,73,70,68,62,68,67,65,30.00,30.00,3,0,4,0.00